This is the latest recevied weather packets stored in our database for station/object N1UNH. If no packets are shown the sender has not sent any weather packets the latest 10 day(s).
| Time | Temp. | Humidity | Pressure | Rain* | Wind** | Luminosity | Snow |
|---|---|---|---|---|---|---|---|
| 1777392998 | 18.89° C | 33% | 1027.2 hPa | 0 mm | - | 965 W/m² | - |
| 1777392693 | 18.89° C | 34% | 1027.3 hPa | 0 mm | - | 958 W/m² | - |
| 1777392391 | 18.89° C | 34% | 1027.5 hPa | 0 mm | - | 955 W/m² | - |
| 1777392086 | 18.33° C | 35% | 1027.3 hPa | 0 mm | - | 951 W/m² | - |
| 1777391781 | 17.78° C | 36% | 1027.5 hPa | 0 mm | - | 937 W/m² | - |
| 1777391477 | 18.33° C | 36% | 1027.9 hPa | 0 mm | - | 942 W/m² | - |
| 1777391174 | 18.33° C | 37% | 1027.8 hPa | 0 mm | - | 936 W/m² | - |
| 1777390869 | 17.22° C | 39% | 1027.8 hPa | 0 mm | - | 928 W/m² | - |
| 1777390567 | 17.22° C | 38% | 1027.8 hPa | 0 mm | - | 824 W/m² | - |
| 1777390263 | 17.22° C | 36% | 1027.8 hPa | 0 mm | - | 918 W/m² | - |
| 1777389959 | 17.22° C | 38% | 1027.9 hPa | 0 mm | - | 818 W/m² | - |
| 1777389656 | 16.67° C | 39% | 1028.2 hPa | 0 mm | - | 778 W/m² | - |
| 1777389352 | 16.67° C | 39% | 1028.4 hPa | 0 mm | - | 690 W/m² | - |
| 1777389050 | 16.67° C | 39% | 1028.3 hPa | 0 mm | - | 388 W/m² | - |
| 1777388747 | 16.11° C | 39% | 1028.3 hPa | 0 mm | - | 720 W/m² | - |
| 1777388444 | 16.11° C | 41% | 1028.5 hPa | 0 mm | - | 665 W/m² | - |
| 1777388144 | 15.56° C | 41% | 1028.2 hPa | 0 mm | - | 538 W/m² | - |
| 1777387840 | 15° C | 41% | 1028.3 hPa | 0 mm | - | 313 W/m² | - |
| 1777387537 | 15° C | 42% | 1028.4 hPa | 0 mm | - | 165 W/m² | - |
| 1777387233 | 14.44° C | 43% | 1028.5 hPa | 0 mm | - | 66 W/m² | - |
| 1777386927 | 13.89° C | 43% | 1028.6 hPa | 0 mm | - | 71 W/m² | - |
| 1777386626 | 13.89° C | 43% | 1028.5 hPa | 0 mm | - | 77 W/m² | - |
| 1777386322 | 13.89° C | 44% | 1028.3 hPa | 0 mm | - | 56 W/m² | - |
| 1777386020 | 13.33° C | 45% | 1028.6 hPa | 0 mm | - | 57 W/m² | - |
| 1777385716 | 12.78° C | 45% | 1028.3 hPa | 0 mm | - | 54 W/m² | - |
* Rain latest hour (hover to see other rain measurements)
** Current wind speed in m/s (hover to see current wind gust speed)